• In Czech Republic
  • List of Countries
  • For 7 days
  • Water Temperature
  • Satellite Maps
  • Weather Map
  • Weather Widgets
  • user-avatar
    Login

    Hourly Weather Sankt Polten

    Today, 19 February, Monday

    Time Temperature Precipitation Wind Pressure Humidity
    00:00 -2°C° 0 mm 1 mps 742 mmHg 90%
    01:00 -2°C° 0 mm 1 mps 742 mmHg 90%
    02:00 -2°C° 0 mm 1 mps 742 mmHg 89%
    03:00 -2°C° 0 mm 1 mps 741 mmHg 89%
    04:00 -3°C° 0 mm 1 mps 741 mmHg 89%
    05:00 -3°C° 0 mm 1 mps 741 mmHg 89%
    06:00 -3°C° 0 mm 1 mps 741 mmHg 89%
    07:00 -3°C° 0 mm 1 mps 740 mmHg 88%
    08:00 -2°C° 0 mm 1 mps 740 mmHg 82%
    09:00 -2°C° 0 mm 2 mps 740 mmHg 75%
    10:00 +1°C° 0 mm 2 mps 739 mmHg 69%
    11:00 +2°C° 0 mm 2 mps 739 mmHg 65%
    12:00 +3°C° 0 mm 2 mps 738 mmHg 62%
    13:00 +3°C° 0 mm 3 mps 738 mmHg 59%
    14:00 +3°C° 0 mm 3 mps 738 mmHg 61%
    15:00 +3°C° 0 mm 3 mps 737 mmHg 63%
    16:00 +2°C° 0 mm 3 mps 737 mmHg 65%
    17:00 +2°C° 0 mm 2 mps 737 mmHg 71%
    18:00 -1°C° 0 mm 2 mps 737 mmHg 78%
    19:00 -2°C° 0 mm 2 mps 736 mmHg 84%
    20:00 -2°C° 0 mm 2 mps 736 mmHg 85%
    21:00 -1°C° 0 mm 1 mps 736 mmHg 86%
    22:00 -1°C° 0 mm 1 mps 736 mmHg 87%
    23:00 -1°C° 0 mm 1 mps 736 mmHg 86%

    Tomorrow, 20 February, Tuesday

    Time Temperature Precipitation Wind Pressure Humidity
    00:00 -1°C° 0 mm 1 mps 736 mmHg 86%
    01:00 -1°C° 0 mm 1 mps 736 mmHg 85%
    02:00 -1°C° 0.1 mm 1 mps 735 mmHg 86%
    03:00 -1°C° 0.1 mm 1 mps 735 mmHg 86%
    04:00 0°C° 0.1 mm 1 mps 735 mmHg 87%
    05:00 0°C° 0.3 mm 1 mps 735 mmHg 89%
    06:00 0°C° 0.3 mm 1 mps 735 mmHg 90%
    07:00 0°C° 0.3 mm 1 mps 734 mmHg 92%
    08:00 0°C° 0.3 mm 1 mps 734 mmHg 89%
    09:00 +1°C° 0.3 mm 1 mps 734 mmHg 87%
    10:00 +1°C° 0.3 mm 1 mps 734 mmHg 85%
    11:00 +2°C° 0.3 mm 1 mps 734 mmHg 84%
    12:00 +2°C° 0.3 mm 1 mps 734 mmHg 83%
    13:00 +2°C° 0.3 mm 2 mps 734 mmHg 82%
    14:00 +1°C° 0.4 mm 2 mps 734 mmHg 84%
    15:00 +1°C° 0.4 mm 2 mps 733 mmHg 86%
    16:00 +1°C° 0.4 mm 2 mps 733 mmHg 89%
    17:00 -1°C° 0.4 mm 2 mps 733 mmHg 91%
    18:00 +1°C° 0.4 mm 1 mps 734 mmHg 93%
    19:00 +1°C° 0.4 mm 1 mps 734 mmHg 95%
    20:00 +1°C° 0.3 mm 1 mps 734 mmHg 95%
    21:00 +1°C° 0.3 mm 1 mps 734 mmHg 95%
    22:00 0°C° 0.3 mm 1 mps 735 mmHg 95%
    23:00 0°C° 0.2 mm 1 mps 735 mmHg 95%

    Day after tomorrow, 21 February, Wednesday

    Time Temperature Precipitation Wind Pressure Humidity
    00:00 0°C° 0.2 mm 1 mps 735 mmHg 94%
    01:00 0°C° 0.2 mm 1 mps 735 mmHg 94%
    02:00 0°C° 0.1 mm 1 mps 735 mmHg 94%
    03:00 0°C° 0.1 mm 1 mps 735 mmHg 94%
    04:00 0°C° 0.1 mm 1 mps 735 mmHg 94%
    05:00 0°C° 0 mm 1 mps 735 mmHg 93%
    06:00 0°C° 0 mm 1 mps 735 mmHg 93%
    07:00 0°C° 0 mm 1 mps 736 mmHg 92%
    08:00 0°C° 0 mm 1 mps 736 mmHg 89%
    09:00 -1°C° 0 mm 2 mps 736 mmHg 85%
    10:00 +1°C° 0 mm 2 mps 736 mmHg 82%
    11:00 +1°C° 0 mm 2 mps 736 mmHg 80%
    12:00 +2°C° 0 mm 2 mps 736 mmHg 79%
    13:00 +2°C° 0 mm 2 mps 735 mmHg 78%
    14:00 +2°C° 0 mm 2 mps 735 mmHg 79%
    15:00 +2°C° 0 mm 2 mps 735 mmHg 81%
    16:00 +2°C° 0 mm 2 mps 735 mmHg 82%
    17:00 +1°C° 0.1 mm 2 mps 735 mmHg 85%
    18:00 -1°C° 0.1 mm 2 mps 735 mmHg 88%
    19:00 -1°C° 0.1 mm 2 mps 735 mmHg 90%
    20:00 -2°C° 0.1 mm 2 mps 735 mmHg 90%
    21:00 -2°C° 0.1 mm 2 mps 735 mmHg 90%
    22:00 -2°C° 0.1 mm 2 mps 735 mmHg 90%
    23:00 -2°C° 0.2 mm 2 mps 735 mmHg 90%

    22 February, Thursday

    Time Temperature Precipitation Wind Pressure Humidity
    00:00 -3°C° 0.2 mm 2 mps 735 mmHg 90%
    01:00 -3°C° 0.2 mm 2 mps 735 mmHg 90%
    02:00 -3°C° 0.3 mm 2 mps 735 mmHg 91%
    03:00 -4°C° 0.3 mm 3 mps 734 mmHg 91%
    04:00 -4°C° 0.3 mm 3 mps 734 mmHg 91%
    05:00 -4°C° 0.3 mm 3 mps 734 mmHg 91%
    06:00 -4°C° 0.3 mm 3 mps 734 mmHg 91%
    07:00 -4°C° 0.3 mm 3 mps 734 mmHg 91%
    08:00 -4°C° 0.2 mm 3 mps 734 mmHg 90%
    09:00 -4°C° 0.2 mm 3 mps 734 mmHg 89%
    10:00 -2°C° 0.2 mm 3 mps 734 mmHg 88%
    11:00 -2°C° 0.3 mm 3 mps 734 mmHg 87%
    12:00 -2°C° 0.3 mm 3 mps 734 mmHg 87%
    13:00 -1°C° 0.3 mm 3 mps 734 mmHg 87%
    14:00 -1°C° 0.3 mm 3 mps 733 mmHg 88%
    15:00 -1°C° 0.3 mm 3 mps 733 mmHg 88%
    16:00 -1°C° 0.3 mm 3 mps 733 mmHg 89%
    17:00 -1°C° 0.3 mm 3 mps 734 mmHg 90%
    18:00 -2°C° 0.3 mm 3 mps 734 mmHg 91%
    19:00 -2°C° 0.3 mm 3 mps 734 mmHg 93%
    20:00 -2°C° 0.2 mm 3 mps 734 mmHg 93%
    21:00 -2°C° 0.2 mm 3 mps 734 mmHg 93%
    22:00 -4°C° 0.2 mm 3 mps 734 mmHg 93%
    23:00 -3°C° 0.1 mm 2 mps 734 mmHg 93%

    23 February, Friday

    Time Temperature Precipitation Wind Pressure Humidity
    00:00 -3°C° 0.1 mm 2 mps 734 mmHg 93%
    01:00 -3°C° 0.1 mm 2 mps 734 mmHg 94%
    02:00 -3°C° 0.1 mm 2 mps 734 mmHg 94%
    03:00 -3°C° 0.1 mm 2 mps 734 mmHg 94%
    04:00 -3°C° 0.1 mm 2 mps 733 mmHg 94%
    05:00 -3°C° 0.1 mm 2 mps 734 mmHg 93%
    06:00 -4°C° 0.1 mm 3 mps 734 mmHg 93%
    07:00 -4°C° 0.1 mm 3 mps 734 mmHg 92%
    08:00 -4°C° 0.1 mm 3 mps 734 mmHg 90%
    09:00 -2°C° 0.1 mm 3 mps 734 mmHg 88%
    10:00 -2°C° 0.1 mm 3 mps 734 mmHg 86%
    11:00 -1°C° 0.1 mm 3 mps 734 mmHg 85%
    12:00 -1°C° 0.1 mm 3 mps 734 mmHg 84%
    13:00 0°C° 0.1 mm 3 mps 735 mmHg 83%
    14:00 -1°C° 0.1 mm 3 mps 735 mmHg 82%
    15:00 -1°C° 0.1 mm 3 mps 735 mmHg 82%
    16:00 -1°C° 0.1 mm 3 mps 735 mmHg 81%
    17:00 -2°C° 0 mm 3 mps 735 mmHg 82%
    18:00 -4°C° 0 mm 3 mps 736 mmHg 84%
    19:00 -5°C° 0 mm 3 mps 736 mmHg 85%
    20:00 -6°C° 0 mm 3 mps 736 mmHg 84%
    21:00 -6°C° 0 mm 2 mps 737 mmHg 84%
    22:00 -7°C° 0 mm 2 mps 737 mmHg 83%
    23:00 -8°C° 0 mm 2 mps 738 mmHg 82%

    24 February, Saturday

    Time Temperature Precipitation Wind Pressure Humidity
    00:00 -8°C° 0 mm 2 mps 738 mmHg 81%
    01:00 -9°C° 0 mm 2 mps 738 mmHg 80%
    02:00 -9°C° 0 mm 2 mps 738 mmHg 80%
    03:00 -10°C° 0 mm 2 mps 739 mmHg 79%
    04:00 -10°C° 0 mm 2 mps 739 mmHg 78%
    05:00 -10°C° 0 mm 2 mps 740 mmHg 78%
    06:00 -10°C° 0 mm 2 mps 740 mmHg 78%
    07:00 -12°C° 0 mm 2 mps 741 mmHg 78%
    08:00 -9°C° 0 mm 2 mps 741 mmHg 73%
    09:00 -9°C° 0 mm 3 mps 741 mmHg 68%
    10:00 -7°C° 0 mm 3 mps 742 mmHg 62%
    11:00 -7°C° 0 mm 3 mps 742 mmHg 61%
    12:00 -6°C° 0 mm 3 mps 742 mmHg 59%
    13:00 -6°C° 0 mm 3 mps 741 mmHg 57%
    14:00 -6°C° 0 mm 3 mps 741 mmHg 60%
    15:00 -6°C° 0 mm 3 mps 741 mmHg 62%
    16:00 -6°C° 0 mm 3 mps 741 mmHg 64%
    17:00 -7°C° 0 mm 2 mps 741 mmHg 69%
    18:00 -8°C° 0 mm 2 mps 741 mmHg 74%
    19:00 -9°C° 0 mm 1 mps 742 mmHg 78%
    20:00 -9°C° 0 mm 1 mps 742 mmHg 78%
    21:00 -9°C° 0 mm 1 mps 741 mmHg 79%
    22:00 -10°C° 0 mm 1 mps 741 mmHg 79%
    23:00 -10°C° 0 mm 1 mps 741 mmHg 78%
    Show more